Orbital Elements at Epoch 2459200.5 (2020-Dec-17.0) TDB
Reference: JPL 18 (heliocentric ecliptic J2000)
Element | Value | Uncertainty (1-sigma) | Units |
e | .1753183843287527 | 8.2472e-08 | |
a | 3.169572541089311 | 3.502e-08 | au |
q | 2.613888204172754 | 2.736e-07 | au |
i | 16.27244501150822 | 9.0936e-06 | deg |
node | 307.6203980121985 | 2.0871e-05 | deg |
peri | 54.09725998556188 | 2.9323e-05 | deg |
M | 250.7502863770373 | 2.4654e-05 | deg |
tp | 2459825.985544191174 (2022-Sep-03.48554419) | 0.00014815 | TDB |
period | 2061.1019328246 5.64 | 3.4159e-05 9.352e-08 | d yr |
n | .1746638505678584 | 2.8948e-09 | deg/d |
Q | 3.725256878005868 | 4.116e-08 | au |
|
| | Orbit Determination Parameters
Additional Information
|